Location: Brno
(49.2000°N, 16.6330°E)
Time: 17:47:43
(UTC+02:00)

Daily predictions for brighter satellites

Satellite Brightness Start Highest point End
(mag) Time Altitude Azimuth Time Altitude Azimuth Time Altitude Azimuth
Cosmos 2016 Rocket 4.3 21:35:38 10° N 21:41:51 57° ENE 21:47:56 10° SSE
MetOp-A 4.2 21:38:47 10° SSE 21:44:10 86° WSW 21:49:34 10° NNW
EO 1 Delta rocket 4.3 21:43:04 10° SE 21:47:34 46° ENE 21:52:02 10° N
Lacrosse 4 Rocket 2.7 21:46:59 10° SW 21:51:07 47° NW 21:55:24 10° NNE
Cosmos 1908 3.5 21:50:15 10° NNW 21:54:09 72° W 21:57:59 10° S
Cosmos 1674 2.6 21:55:40 10° S 21:59:26 84° E 22:03:13 10° N
Abrixas rocket 2.2 21:57:30 10° W 22:00:44 68° S 22:03:58 10° ESE
Cosmos 1408 Rocket 3.7 21:56:45 10° S 22:00:56 54° E 22:05:10 10° NNE
Terra 2.6 22:00:57 10° SE 22:05:23 41° ENE 22:09:51 10° N
Cosmos 1076 Rocket 3.6 22:03:25 10° S 22:07:47 84° W 22:12:11 10° N
KORONAS-FOTON 3.7 22:05:15 10° S 22:09:02 72° E 22:12:51 10° NNE
Meteor 2-2 Rocket 4.4 22:04:04 10° N 22:09:49 71° ENE 22:15:39 10° SSE
Cosmos 1356 Rocket 3.5 22:05:37 10° S 22:09:52 89° W 22:14:13 10° NNE
Cosmos 1814 Rocket 4.2 22:06:56 10° NNW 22:12:18 67° ENE 22:17:15 12° SSE
Cosmos 2221 4.0 22:10:50 10° NNW 22:14:51 35° W 22:18:51 10° SSW
Cosmos 332 Rocket 3.9 22:10:15 10° NNW 22:15:10 80° ENE 22:19:44 12° SSE
Okean 3 Rocket 4.5 22:12:11 10° SSW 22:16:35 52° WNW 22:20:59 10° N
Cosmos 2058 4.4 22:14:03 12° SE 22:16:56 22° E 22:20:13 10° NE
Meteor 1-21 Rocket 4.3 22:12:13 10° SSW 22:17:55 84° WNW 22:23:33 10° N
SPOT 1/Viking Rocket 3.6 22:14:21 10° SSE 22:19:29 80° WSW 22:24:41 10° NNW
Cosmos 1500 Rocket 4.5 22:16:51 12° SSE 22:20:30 33° E 22:24:31 10° NNE
Cosmos 2061 Rocket 4.5 22:16:49 10° NNW 22:23:06 63° W 22:29:24 10° S
Cosmos 841 Rocket 3.9 22:21:12 10° NNW 22:26:24 56° ENE 22:30:51 14° SE
Cosmos 2297 Rocket 3.7 22:21:22 10° WSW 22:26:41 40° NW 22:32:02 10° NNE
SL-08 RB Rocket 4.4 22:24:06 10° S 22:28:33 53° W 22:33:05 10° NNW
Cosmos 1763 Rocket 3.5 22:25:03 10° NNW 22:30:13 74° ENE 22:34:29 15° SSE
CARTOSAT-1 3.7 22:27:01 14° SSE 22:30:41 66° ENE 22:34:59 10° N
Cosmos 2151 3.8 22:27:45 14° SSE 22:30:55 34° E 22:34:50 10° NNE
Tiangong 1 2.2 22:29:11 10° SW 22:31:23 21° S 22:32:08 19° SSE
RESURS DK-1 2.6 22:28:08 10° NW 22:32:17 63° WSW 22:35:41 15° SSE
USA 234 3.2 22:26:54 10° ENE 22:33:26 66° SE 22:39:55 10° SW
Cosmos 1766 Rocket 3.9 22:31:52 10° SSW 22:36:08 64° WNW 22:40:29 10° N
Cosmos 1867 3.6 22:32:24 10° SW 22:37:52 88° SE 22:43:22 10° NE
Cosmos 2263 Rocket 3.1 22:35:13 14° SSE 22:39:04 29° ESE 22:43:50 10° NE
Cosmos 2123 Rocket 4.0 22:32:54 10° S 22:39:04 83° E 22:45:19 10° N
ERBS 2.3 22:35:47 10° WNW 22:39:11 74° SW 22:41:33 18° SE
Cosmos 2228 Rocket 3.2 22:35:49 10° NNW 22:40:26 80° W 22:44:27 13° S
Cosmos 1328 Rocket 3.7 22:36:22 10° NNW 22:40:44 72° W 22:44:33 13° S
Cosmos 1515 Rocket 3.5 22:39:35 10° N 22:43:57 90° W 22:47:26 16° S
SME Rocket 4.1 22:41:14 14° ESE 22:44:09 36° ENE 22:48:34 10° N
Cosmos 2285 Rocket 4.4 22:39:46 10° NNW 22:46:00 54° ENE 22:51:13 15° SE
CZ-3A R/B 0.5 22:45:25 10° NW 22:46:22 24° NNE 22:46:33 23° NE
H-2A ROCKET BODY 4.4 22:41:59 11° S 22:46:26 17° SE 22:56:17 10° ESE
ATLAS 5 CENTAUR R/B 2.4 22:43:19 10° SW 22:48:04 64° NW 22:53:20 10° NE
Meteor 2-10 4.4 22:42:52 10° NNW 22:48:24 71° W 22:53:32 13° S
H-2A R/B 2.0 22:48:51 17° SSE 22:52:07 86° ENE 22:56:24 10° NNW
Cosmos 1743 Rocket 3.5 22:48:26 11° S 22:52:35 90° ESE 22:56:56 10° N
SL-14 R/B 3.4 22:49:00 10° SSW 22:52:56 78° W 22:56:54 10° N
Cosmos 1151 Rocket 3.0 22:49:45 10° N 22:54:11 90° ENE 22:57:25 18° S
Cosmos 1603 4.5 22:51:47 10° NW 22:57:09 44° WSW 23:01:44 14° S
Cosmos 1328 4.0 22:53:34 10° SSW 22:57:34 71° W 23:01:37 10° N
Cosmos 1725 Rocket 4.4 22:51:43 10° NNW 22:57:54 61° W 23:03:47 11° S
Lacrosse 5 2.5 22:53:25 10° WNW 22:58:10 41° SW 23:01:25 19° SSE
Cosmos 1300 3.9 22:58:08 10° NNW 23:01:42 37° W 23:04:56 12° SSW
H-2A R/B 3.3 22:59:14 10° SSW 23:04:09 37° W 23:09:11 10° NNW
Cosmos 371 Rocket 4.0 23:01:32 10° NW 23:06:09 46° WSW 23:09:42 16° S
Cosmos 1626 2.2 23:07:11 22° S 23:09:22 61° E 23:13:04 10° NNE
Cosmos 2084 4.2 23:05:53 10° WSW 23:09:41 48° NW 23:13:23 10° NE
CZ-4C R/B 3.9 23:09:09 12° ESE 23:10:13 13° ESE 23:12:42 10° ENE
IGS 5A 4.0 23:08:03 17° S 23:11:06 51° W 23:15:11 10° NNW
Cosmos 1726 4.2 23:08:42 10° NW 23:11:36 22° W 23:14:29 10° SW
Cosmos 1943 3.5 23:09:15 10° NW 23:14:48 61° WSW 23:18:44 20° S
CZ-2C R/B 4.1 23:18:42 17° SE 23:22:52 43° ENE 23:28:11 10° N
Cosmos 1464 Rocket 4.1 23:16:47 10° N 23:22:55 65° ENE 23:27:07 21° SSE
Cosmos 1869 3.8 23:22:10 10° N 23:26:01 48° ENE 23:27:57 25° SE
DELTA 2 DEB (DPAF) 4.1 23:25:32 24° S 23:28:15 81° WSW 23:32:44 10° NNW
CZ-4B R/B 3.5 23:24:18 10° NNE 23:29:37 76° ESE 23:33:23 19° S
SL-19 R/B 3.5 23:29:19 37° S 23:30:15 73° WSW 23:33:09 10° NNW
CZ-4C R/B 3.5 23:30:03 25° S 23:32:27 80° WSW 23:36:53 10° NNW
CZ-4 R/B 3.9 23:28:56 10° NNE 23:33:52 82° WNW 23:37:35 17° SSW
deb Chang Zheng 4 3.8 23:29:58 10° N 23:34:19 70° WNW 23:37:45 16° SSW
Cosmos 1455 2.4 23:32:01 10° NNW 23:35:53 67° W 23:37:51 27° S
Cosmos 540 Rocket 3.4 23:31:06 10° NNW 23:36:17 82° WSW 23:39:20 25° SSE
Abrixas rocket 3.4 23:34:26 10° W 23:37:06 25° SSW 23:37:06 25° SSW
ALOS 2 3.5 23:36:58 21° SE 23:39:28 40° ENE 23:43:36 10° N
Sich 1 3.4 23:39:59 28° SSE 23:41:52 47° E 23:45:59 10° NNE
Terra 3.3 23:39:43 13° SSW 23:43:15 28° W 23:47:22 10° NW
Cosmos 1707 Rocket 3.5 23:41:18 10° N 23:45:48 89° E 23:48:07 28° S
Cosmos 967 Rocket 4.5 23:40:23 10° NW 23:46:46 89° WSW 23:51:09 22° SE
CZ-2C R/B 3.2 23:43:24 10° NNE 23:48:27 41° E 23:51:01 25° SSE
Cosmos 1354 Rocket 3.9 23:45:10 19° SSW 23:48:58 83° ESE 23:54:14 10° NNE
Cosmos 292 Rocket 4.5 23:48:06 10° NNW 23:52:43 46° ENE 23:55:43 20° SE
Cosmos 2058 4.1 23:50:15 13° SW 23:53:39 38° WNW 23:57:38 10° N
